Time,TemperatureF,DewpointF,PressureIn,WindDirection,WindDirectionDegrees,WindSpeedMPH,WindSpeedGustMPH,Humidity,HourlyPrecipIn,Conditions,Clouds,dailyrainin,SoftwareType,DateUTC
2013-05-31 00:02:00,66.0,63.0,29.84,South,181,2.0,7.0,91,0.01,,,0.09,,2013-05-31 05:02:00,
2013-05-31 00:12:00,66.0,63.0,29.84,South,181,2.0,7.0,91,0.01,,,0.09,,2013-05-31 05:12:00,
2013-05-31 00:22:00,66.0,63.0,29.84,South,181,2.0,7.0,91,0.01,,,0.09,,2013-05-31 05:22:00,
2013-05-31 00:32:00,64.0,63.0,29.83,South,181,0.0,9.0,96,0.15,,,0.23,,2013-05-31 05:32:00,
2013-05-31 00:42:00,64.0,63.0,29.83,South,181,0.0,9.0,96,0.15,,,0.23,,2013-05-31 05:42:00,
2013-05-31 00:52:00,64.0,63.0,29.81,SE,145,2.0,4.0,97,0.15,,,0.23,,2013-05-31 05:52:00,
2013-05-31 01:02:00,64.0,63.0,29.81,SSE,153,0.0,4.0,97,0.13,,,0.23,,2013-05-31 06:02:00,
2013-05-31 01:12:00,64.0,63.0,29.81,SSE,153,0.0,4.0,97,0.13,,,0.23,,2013-05-31 06:12:00,
2013-05-31 01:21:00,64.0,63.0,29.81,SSE,151,2.0,3.0,98,0.04,,,0.23,,2013-05-31 06:21:00,
2013-05-31 01:31:00,64.0,63.0,29.82,SE,136,0.0,3.0,98,0.04,,,0.23,,2013-05-31 06:31:00,
2013-05-31 01:41:00,64.0,63.0,29.82,SE,136,0.0,3.0,98,0.04,,,0.23,,2013-05-31 06:41:00,
2013-05-31 01:52:00,64.0,63.0,29.82,SE,136,0.0,3.0,98,0.04,,,0.23,,2013-05-31 06:52:00,
2013-05-31 02:02:00,64.0,63.0,29.80,SSE,155,1.0,7.0,98,0.00,,,0.23,,2013-05-31 07:02:00,
2013-05-31 02:11:00,64.0,64.0,29.80,SSE,163,2.0,4.0,99,0.00,,,0.23,,2013-05-31 07:11:00,
2013-05-31 02:21:00,64.0,64.0,29.80,SSE,163,2.0,4.0,99,0.00,,,0.23,,2013-05-31 07:21:00,
2013-05-31 02:32:00,64.0,64.0,29.80,SSE,163,2.0,4.0,99,0.00,,,0.23,,2013-05-31 07:32:00,
2013-05-31 02:42:00,64.0,64.0,29.80,SSE,163,2.0,4.0,99,0.00,,,0.23,,2013-05-31 07:42:00,
2013-05-31 02:52:00,64.0,64.0,29.80,SSE,163,2.0,4.0,99,0.00,,,0.23,,2013-05-31 07:52:00,
2013-05-31 03:02:00,64.0,64.0,29.80,SSE,163,2.0,4.0,99,0.00,,,0.23,,2013-05-31 08:02:00,
2013-05-31 03:22:00,64.0,64.0,29.80,SSE,167,1.0,4.0,99,0.02,,,0.26,,2013-05-31 08:22:00,
2013-05-31 03:32:00,64.0,64.0,29.79,South,178,1.0,4.0,99,0.04,,,0.27,,2013-05-31 08:32:00,
2013-05-31 03:42:00,64.0,64.0,29.79,South,178,1.0,4.0,99,0.04,,,0.27,,2013-05-31 08:42:00,
2013-05-31 03:51:00,64.0,64.0,29.79,South,184,1.0,7.0,99,0.09,,,0.33,,2013-05-31 08:51:00,
2013-05-31 04:01:00,64.0,64.0,29.79,South,184,1.0,7.0,99,0.09,,,0.33,,2013-05-31 09:01:00,
2013-05-31 04:11:00,64.0,64.0,29.79,South,184,1.0,7.0,99,0.09,,,0.33,,2013-05-31 09:11:00,
2013-05-31 04:21:00,64.0,64.0,29.79,South,184,1.0,7.0,99,0.09,,,0.33,,2013-05-31 09:21:00,
2013-05-31 04:32:00,63.0,63.0,29.77,South,178,1.0,2.0,99,0.08,,,0.38,,2013-05-31 09:32:00,
2013-05-31 04:43:00,63.0,63.0,29.77,South,178,1.0,2.0,99,0.08,,,0.38,,2013-05-31 09:43:00,
2013-05-31 04:53:00,63.0,63.0,29.77,South,178,1.0,2.0,99,0.08,,,0.38,,2013-05-31 09:53:00,
2013-05-31 05:02:00,63.0,62.0,29.78,South,181,0.0,2.0,98,0.00,,,0.38,,2013-05-31 10:02:00,
2013-05-31 05:12:00,63.0,62.0,29.79,South,181,1.0,4.0,98,0.01,,,0.40,,2013-05-31 10:12:00,
2013-05-31 05:22:00,63.0,62.0,29.79,South,181,1.0,4.0,98,0.01,,,0.40,,2013-05-31 10:22:00,
2013-05-31 05:33:00,63.0,62.0,29.79,South,181,1.0,4.0,98,0.01,,,0.40,,2013-05-31 10:33:00,
2013-05-31 05:42:00,63.0,62.0,29.79,South,181,1.0,4.0,98,0.01,,,0.40,,2013-05-31 10:42:00,
2013-05-31 05:52:00,64.0,63.0,29.80,South,177,2.0,8.0,97,0.01,,,0.40,,2013-05-31 10:52:00,
2013-05-31 06:02:00,64.0,63.0,29.80,South,172,6.0,13.0,97,0.01,,,0.40,,2013-05-31 11:02:00,
2013-05-31 06:11:00,64.0,63.0,29.80,South,172,6.0,13.0,97,0.01,,,0.40,,2013-05-31 11:11:00,
2013-05-31 06:22:00,64.0,63.0,29.79,South,176,1.0,12.0,96,0.00,,,0.40,,2013-05-31 11:22:00,
2013-05-31 06:32:00,64.0,63.0,29.78,South,174,2.0,4.0,96,0.00,,,0.40,,2013-05-31 11:32:00,
2013-05-31 06:42:00,64.0,63.0,29.78,South,174,2.0,4.0,96,0.00,,,0.40,,2013-05-31 11:42:00,
2013-05-31 06:52:00,64.0,63.0,29.78,South,177,3.0,7.0,95,0.00,,,0.40,,2013-05-31 11:52:00,
2013-05-31 07:01:00,65.0,64.0,29.78,South,181,0.0,7.0,95,0.00,,,0.40,,2013-05-31 12:01:00,
2013-05-31 07:11:00,65.0,64.0,29.78,South,181,0.0,7.0,95,0.00,,,0.40,,2013-05-31 12:11:00,
2013-05-31 07:21:00,65.0,63.0,29.77,South,170,1.0,7.0,94,0.00,,,0.40,,2013-05-31 12:21:00,
2013-05-31 07:31:00,65.0,63.0,29.77,South,170,1.0,7.0,94,0.00,,,0.40,,2013-05-31 12:31:00,
2013-05-31 07:41:00,65.0,63.0,29.77,South,170,1.0,7.0,94,0.00,,,0.40,,2013-05-31 12:41:00,
2013-05-31 07:52:00,67.0,64.0,29.79,South,170,2.0,12.0,90,0.00,,,0.40,,2013-05-31 12:52:00,
2013-05-31 08:01:00,67.0,64.0,29.78,South,174,2.0,8.0,89,0.00,,,0.40,,2013-05-31 13:01:00,
2013-05-31 08:11:00,67.0,64.0,29.78,South,174,2.0,8.0,89,0.00,,,0.40,,2013-05-31 13:11:00,
2013-05-31 08:21:00,67.0,64.0,29.78,South,174,2.0,8.0,89,0.00,,,0.40,,2013-05-31 13:21:00,
2013-05-31 08:32:00,67.0,64.0,29.78,South,174,2.0,8.0,89,0.00,,,0.40,,2013-05-31 13:32:00,
2013-05-31 08:42:00,67.0,64.0,29.78,South,174,2.0,8.0,89,0.00,,,0.40,,2013-05-31 13:42:00,
2013-05-31 08:52:00,68.0,64.0,29.79,South,172,6.0,13.0,86,0.00,,,0.40,,2013-05-31 13:52:00,
2013-05-31 09:02:00,68.0,64.0,29.81,SSE,162,2.0,10.0,86,0.00,,,0.40,,2013-05-31 14:02:00,
2013-05-31 09:11:00,68.0,64.0,29.81,SSE,162,2.0,10.0,86,0.00,,,0.40,,2013-05-31 14:11:00,
2013-05-31 09:21:00,68.0,64.0,29.81,SSE,162,2.0,10.0,86,0.00,,,0.40,,2013-05-31 14:21:00,
2013-05-31 09:32:00,69.0,64.0,29.80,South,177,5.0,12.0,85,0.00,,,0.40,,2013-05-31 14:32:00,
2013-05-31 09:41:00,69.0,64.0,29.80,South,177,5.0,12.0,85,0.00,,,0.40,,2013-05-31 14:41:00,
2013-05-31 09:52:00,71.0,66.0,29.79,South,169,2.0,8.0,83,0.00,,,0.40,,2013-05-31 14:52:00,
2013-05-31 10:01:00,71.0,66.0,29.79,South,169,2.0,8.0,83,0.00,,,0.40,,2013-05-31 15:01:00,
2013-05-31 10:11:00,71.0,66.0,29.79,South,169,2.0,8.0,83,0.00,,,0.40,,2013-05-31 15:11:00,
2013-05-31 10:21:00,71.0,66.0,29.79,South,169,2.0,8.0,83,0.00,,,0.40,,2013-05-31 15:21:00,
2013-05-31 10:33:00,71.0,66.0,29.81,South,172,2.0,9.0,83,0.00,,,0.40,,2013-05-31 15:33:00,
2013-05-31 10:43:00,71.0,66.0,29.81,South,172,2.0,9.0,83,0.00,,,0.40,,2013-05-31 15:43:00,
2013-05-31 10:53:00,71.0,66.0,29.80,South,176,1.0,9.0,83,0.00,,,0.40,,2013-05-31 15:53:00,
2013-05-31 11:03:00,72.0,66.0,29.80,South,178,2.0,10.0,82,0.00,,,0.40,,2013-05-31 16:03:00,
2013-05-31 11:12:00,75.0,68.0,29.79,SSE,154,2.0,4.0,78,0.00,,,0.40,,2013-05-31 16:12:00,
2013-05-31 11:22:00,75.0,68.0,29.79,SSE,154,2.0,4.0,78,0.00,,,0.40,,2013-05-31 16:22:00,
2013-05-31 11:33:00,74.0,66.0,29.80,SSE,163,2.0,8.0,77,0.00,,,0.40,,2013-05-31 16:33:00,
2013-05-31 11:42:00,74.0,66.0,29.80,SSE,163,2.0,8.0,77,0.00,,,0.40,,2013-05-31 16:42:00,
2013-05-31 11:52:00,73.0,66.0,29.80,SSE,165,2.0,13.0,79,0.00,,,0.40,,2013-05-31 16:52:00,
2013-05-31 12:02:00,74.0,67.0,29.79,SSE,159,1.0,4.0,78,0.00,,,0.40,,2013-05-31 17:02:00,
2013-05-31 12:12:00,74.0,67.0,29.79,SSE,159,1.0,4.0,78,0.00,,,0.40,,2013-05-31 17:12:00,
2013-05-31 12:22:00,77.0,67.0,29.78,SSE,161,2.0,10.0,72,0.00,,,0.40,,2013-05-31 17:22:00,
2013-05-31 12:32:00,77.0,67.0,29.78,SSE,161,2.0,10.0,72,0.00,,,0.40,,2013-05-31 17:32:00,
2013-05-31 12:42:00,77.0,67.0,29.78,SSE,161,2.0,10.0,72,0.00,,,0.40,,2013-05-31 17:42:00,
2013-05-31 12:52:00,76.0,67.0,29.72,SE,144,4.0,30.0,74,0.00,,,0.40,,2013-05-31 17:52:00,
2013-05-31 13:02:00,78.0,68.0,29.75,SSE,158,2.0,18.0,72,0.00,,,0.40,,2013-05-31 18:02:00,
2013-05-31 13:11:00,78.0,68.0,29.75,SSE,158,2.0,18.0,72,0.00,,,0.40,,2013-05-31 18:11:00,
2013-05-31 13:22:00,78.0,67.0,29.77,South,170,6.0,12.0,70,0.00,,,0.40,,2013-05-31 18:22:00,
2013-05-31 13:32:00,78.0,67.0,29.77,South,170,6.0,12.0,70,0.00,,,0.40,,2013-05-31 18:32:00,
2013-05-31 13:42:00,78.0,67.0,29.77,South,170,6.0,12.0,70,0.00,,,0.40,,2013-05-31 18:42:00,
2013-05-31 13:52:00,77.0,66.0,29.77,South,186,8.0,19.0,70,0.00,,,0.40,,2013-05-31 18:52:00,
2013-05-31 14:02:00,77.0,66.0,29.77,South,186,8.0,19.0,70,0.00,,,0.40,,2013-05-31 19:02:00,
2013-05-31 14:11:00,77.0,66.0,29.77,South,186,8.0,19.0,70,0.00,,,0.40,,2013-05-31 19:11:00,
2013-05-31 14:22:00,78.0,66.0,29.75,South,179,4.0,16.0,67,0.00,,,0.40,,2013-05-31 19:22:00,
2013-05-31 14:32:00,78.0,66.0,29.75,South,179,4.0,16.0,67,0.00,,,0.40,,2013-05-31 19:32:00,
2013-05-31 14:42:00,78.0,66.0,29.75,South,179,4.0,16.0,67,0.00,,,0.40,,2013-05-31 19:42:00,
2013-05-31 14:52:00,78.0,66.0,29.75,South,179,4.0,16.0,67,0.00,,,0.40,,2013-05-31 19:52:00,
2013-05-31 15:01:00,78.0,66.0,29.75,South,179,4.0,16.0,67,0.00,,,0.40,,2013-05-31 20:01:00,
2013-05-31 17:42:00,79.0,62.0,29.72,SSE,164,1.0,11.0,57,0.00,,,0.40,,2013-05-31 22:42:00,
2013-05-31 17:53:00,79.0,62.0,29.72,SSE,164,1.0,11.0,57,0.00,,,0.40,,2013-05-31 22:53:00,
2013-05-31 18:02:00,79.0,63.0,29.71,South,182,1.0,17.0,58,0.00,,,0.40,,2013-05-31 23:02:00,
2013-05-31 18:12:00,79.0,63.0,29.71,South,182,1.0,17.0,58,0.00,,,0.40,,2013-05-31 23:12:00,
2013-05-31 18:21:00,79.0,63.0,29.71,South,182,1.0,17.0,58,0.00,,,0.40,,2013-05-31 23:21:00,
2013-05-31 18:32:00,81.0,63.0,29.71,SSE,158,2.0,10.0,55,0.00,,,0.40,,2013-05-31 23:32:00,
2013-05-31 18:42:00,81.0,63.0,29.71,SSE,158,2.0,10.0,55,0.00,,,0.40,,2013-05-31 23:42:00,
2013-05-31 18:52:00,81.0,63.0,29.71,SSE,158,2.0,10.0,55,0.00,,,0.40,,2013-05-31 23:52:00,
2013-05-31 19:01:00,79.0,63.0,29.72,South,177,2.0,14.0,58,0.00,,,0.40,,2013-06-01 00:01:00,
2013-05-31 19:12:00,76.0,62.0,29.72,SSE,164,4.0,15.0,63,0.00,,,0.40,,2013-06-01 00:12:00,
2013-05-31 19:22:00,76.0,62.0,29.72,SSE,164,4.0,15.0,63,0.00,,,0.40,,2013-06-01 00:22:00,
2013-05-31 19:32:00,75.0,62.0,29.72,South,177,5.0,17.0,65,0.00,,,0.40,,2013-06-01 00:32:00,
2013-05-31 19:42:00,74.0,63.0,29.72,South,175,2.0,15.0,68,0.00,,,0.40,,2013-06-01 00:42:00,
2013-05-31 19:52:00,74.0,63.0,29.72,South,175,2.0,15.0,68,0.00,,,0.40,,2013-06-01 00:52:00,
2013-05-31 20:01:00,73.0,63.0,29.72,SSE,164,1.0,2.0,71,0.00,,,0.40,,2013-06-01 01:01:00,
2013-05-31 20:11:00,73.0,63.0,29.72,SSE,164,1.0,2.0,71,0.00,,,0.40,,2013-06-01 01:11:00,
2013-05-31 20:21:00,73.0,63.0,29.72,SSE,164,1.0,2.0,71,0.00,,,0.40,,2013-06-01 01:21:00,
2013-05-31 20:32:00,73.0,63.0,29.72,SSE,164,1.0,2.0,71,0.00,,,0.40,,2013-06-01 01:32:00,
2013-05-31 20:42:00,71.0,63.0,29.71,South,177,0.0,2.0,76,0.00,,,0.32,,2013-06-01 01:42:00,
2013-05-31 20:52:00,71.0,63.0,29.71,South,177,0.0,2.0,76,0.00,,,0.32,,2013-06-01 01:52:00,
2013-05-31 21:01:00,71.0,63.0,29.71,South,177,0.0,2.0,76,0.00,,,0.32,,2013-06-01 02:01:00,
2013-05-31 21:11:00,71.0,63.0,29.71,South,177,0.0,2.0,76,0.00,,,0.32,,2013-06-01 02:11:00,
2013-05-31 21:21:00,71.0,63.0,29.71,South,177,0.0,2.0,76,0.00,,,0.32,,2013-06-01 02:21:00,
2013-05-31 21:32:00,70.0,63.0,29.73,South,181,0.0,2.0,78,0.00,,,0.32,,2013-06-01 02:32:00,
2013-05-31 21:42:00,70.0,64.0,29.72,SE,135,0.0,2.0,82,0.00,,,0.32,,2013-06-01 02:42:00,
2013-05-31 21:52:00,70.0,64.0,29.72,SE,135,0.0,2.0,82,0.00,,,0.32,,2013-06-01 02:52:00,
2013-05-31 22:01:00,70.0,64.0,29.72,SE,135,0.0,2.0,82,0.00,,,0.32,,2013-06-01 03:01:00,
2013-05-31 22:11:00,69.0,64.0,29.72,SE,135,1.0,2.0,83,0.00,,,0.32,,2013-06-01 03:11:00,
2013-05-31 22:21:00,69.0,64.0,29.72,SE,135,1.0,2.0,83,0.00,,,0.32,,2013-06-01 03:21:00,
2013-05-31 22:33:00,69.0,64.0,29.73,South,181,0.0,2.0,84,0.00,,,0.32,,2013-06-01 03:33:00,
2013-05-31 22:43:00,69.0,64.0,29.72,South,181,0.0,1.0,85,0.00,,,0.32,,2013-06-01 03:43:00,
2013-05-31 22:53:00,69.0,64.0,29.72,South,181,0.0,1.0,85,0.00,,,0.32,,2013-06-01 03:53:00,
2013-05-31 23:02:00,69.0,65.0,29.71,SE,135,1.0,2.0,88,0.00,,,0.32,,2013-06-01 04:02:00,
2013-05-31 23:12:00,69.0,65.0,29.70,SE,135,1.0,2.0,88,0.00,,,0.32,,2013-06-01 04:12:00,
2013-05-31 23:23:00,69.0,65.0,29.70,SE,135,1.0,2.0,88,0.00,,,0.32,,2013-06-01 04:23:00,
2013-05-31 23:33:00,68.0,65.0,29.71,SE,135,1.0,2.0,89,0.00,,,0.32,,2013-06-01 04:33:00,
2013-05-31 23:42:00,68.0,65.0,29.71,SE,143,0.0,2.0,89,0.00,,,0.32,,2013-06-01 04:42:00,
2013-05-31 23:53:00,68.0,65.0,29.71,SE,143,0.0,2.0,89,0.00,,,0.32,,2013-06-01 04:53:00,